This is the latest recevied weather packets stored in our database for station/object PY5KT-13. If no packets are shown the sender has not sent any weather packets the latest 10 day(s).
| Time | Temp. | Humidity | Pressure | Rain* | Wind** | Luminosity | Snow |
|---|---|---|---|---|---|---|---|
| 1777980547 | 19.44° C | 91% | 1023.6 hPa | 0 mm | - | 234 W/m² | - |
| 1777980245 | 18.89° C | 95% | 1023.5 hPa | 0 mm | - | 217 W/m² | - |
| 1777979943 | 18.33° C | 98% | 1023.5 hPa | 0 mm | - | 206 W/m² | - |
| 1777979642 | 18.33° C | 99% | 1023.4 hPa | 0 mm | - | 192 W/m² | - |
| 1777979340 | 17.78° C | 99% | 1023.4 hPa | 0 mm | - | 177 W/m² | - |
| 1777979038 | 17.78° C | 99% | 1023.4 hPa | 0 mm | - | 161 W/m² | - |
| 1777978736 | 17.78° C | 99% | 1023.3 hPa | 0 mm | - | 146 W/m² | - |
| 1777978435 | 16.67° C | 99% | 1023.3 hPa | 0 mm | - | 132 W/m² | - |
| 1777978133 | 15.56° C | 99% | 1023.2 hPa | 0 mm | - | 111 W/m² | - |
| 1777977832 | 15.56° C | 99% | 1023.1 hPa | 0 mm | - | 98 W/m² | - |
| 1777977530 | 12.78° C | 99% | 1023.1 hPa | 0 mm | - | 38 W/m² | - |
| 1777977229 | 12.22° C | 99% | 1023 hPa | 0 mm | - | 21 W/m² | - |
| 1777976927 | 11.67° C | 99% | 1022.9 hPa | 0 mm | - | 18 W/m² | - |
| 1777976625 | 11.67° C | 99% | 1022.9 hPa | 0 mm | - | 16 W/m² | - |
| 1777976324 | 11.67° C | 99% | 1022.8 hPa | 0 mm | - | 16 W/m² | - |
| 1777976022 | 11.11° C | 99% | 1022.8 hPa | 0 mm | - | 14 W/m² | - |
| 1777975720 | 11.11° C | 99% | 1022.7 hPa | 0 mm | - | 13 W/m² | - |
| 1777975418 | 11.11° C | 99% | 1022.7 hPa | 0 mm | - | 11 W/m² | - |
| 1777975117 | 11.11° C | 99% | 1022.6 hPa | 0 mm | - | 9 W/m² | - |
| 1777974815 | 11.11° C | 99% | 1022.6 hPa | 0 mm | - | 6 W/m² | - |
| 1777974514 | 11.11° C | 99% | 1022.5 hPa | 0 mm | - | 6 W/m² | - |
| 1777974212 | 11.11° C | 99% | 1022.3 hPa | 0 mm | - | 2 W/m² | - |
| 1777973911 | 11.11° C | 99% | 1022.3 hPa | 0 mm | - | 1 W/m² | - |
| 1777973609 | 11.11° C | 99% | 1022.2 hPa | 0 mm | - | 0 W/m² | - |
| 1777973307 | 11.11° C | 99% | 1022.2 hPa | 0 mm | - | 0 W/m² | - |
* Rain latest hour (hover to see other rain measurements)
** Current wind speed in m/s (hover to see current wind gust speed)